AIB3004 TFFR-TFFR

Flight info

Callsign AIB3004
Flight time 0h 35m
Altitude 13000
Route FR510 DCT FR512 DCT DESTO DCT SAXOS DCT RIDIN DCT IR12Z
Aircraft A321/M-SDE3FGHIRWY/LB1

Departure

Time 2026-04-30 21:53
Airport Maryse Condé International Airport (TFFR)

Arrival

Time 2026-04-30 22:29
Airport Maryse Condé International Airport (TFFR)
Time Latitude Longitude Altitude Speed Heading
2026-04-30 21:39 16.26945 -61.52876 44 ft 0 kts 10°
2026-04-30 21:41 16.26934 -61.52878 44 ft 2 kts
2026-04-30 21:41 16.26919 -61.52877 44 ft 2 kts 355°
2026-04-30 21:41 16.26904 -61.52875 44 ft 2 kts 346°
2026-04-30 21:42 16.26890 -61.52870 44 ft 2 kts 337°
2026-04-30 21:42 16.26876 -61.52864 44 ft 2 kts 328°
2026-04-30 21:42 16.26864 -61.52855 44 ft 2 kts 320°
2026-04-30 21:42 16.26853 -61.52844 44 ft 2 kts 311°
2026-04-30 21:43 16.26844 -61.52831 44 ft 2 kts 302°
2026-04-30 21:43 16.26839 -61.52822 44 ft 2 kts 296°
2026-04-30 21:43 16.26832 -61.52803 44 ft 2 kts 285°
2026-04-30 21:43 16.26830 -61.52795 44 ft 1 kts 280°
2026-04-30 21:44 16.26829 -61.52792 44 ft 0 kts 279°
2026-04-30 21:45 16.26829 -61.52793 44 ft 0 kts 279°
2026-04-30 21:46 16.26831 -61.52803 44 ft 2 kts 281°
2026-04-30 21:46 16.26838 -61.52838 44 ft 6 kts 281°
2026-04-30 21:46 16.26839 -61.52900 44 ft 10 kts 240°
2026-04-30 21:46 16.26763 -61.52939 44 ft 14 kts 186°
2026-04-30 21:47 16.26670 -61.52958 44 ft 9 kts 191°
2026-04-30 21:47 16.26654 -61.52961 44 ft 0 kts 191°
2026-04-30 21:48 16.26617 -61.52969 44 ft 26 kts 191°
2026-04-30 21:48 16.26527 -61.52998 44 ft 12 kts 210°
2026-04-30 21:49 16.26518 -61.53136 44 ft 34 kts 281°
2026-04-30 21:49 16.26584 -61.53475 44 ft 61 kts 288°
2026-04-30 21:49 16.26671 -61.53932 44 ft 67 kts 280°
2026-04-30 21:49 16.26742 -61.54356 44 ft 41 kts 283°
2026-04-30 21:50 16.26802 -61.54647 44 ft 32 kts 284°
2026-04-30 21:50 16.26862 -61.54750 44 ft 14 kts 266°
2026-04-30 21:50 16.26822 -61.54755 44 ft 1 kts 88°
2026-04-30 21:50 16.26820 -61.54745 44 ft 0 kts 102°
2026-04-30 21:52 16.26820 -61.54743 44 ft 0 kts 103°
2026-04-30 21:52 16.26809 -61.54706 44 ft 11 kts 104°
2026-04-30 21:52 16.26797 -61.54619 44 ft 12 kts 98°
2026-04-30 21:53 16.26767 -61.54455 44 ft 56 kts 100°
2026-04-30 21:53 16.26636 -61.53706 112 ft 144 kts 101°
2026-04-30 21:53 16.26422 -61.52611 855 ft 163 kts 102°
2026-04-30 21:53 16.26228 -61.51498 1812 ft 157 kts 96°
2026-04-30 21:54 16.26432 -61.50357 2477 ft 177 kts 62°
2026-04-30 21:54 16.27340 -61.49438 3113 ft 190 kts 28°
2026-04-30 21:54 16.28638 -61.49204 3495 ft 197 kts 352°
2026-04-30 21:54 16.29855 -61.49815 3584 ft 198 kts 314°
2026-04-30 21:55 16.30478 -61.51062 3588 ft 196 kts 276°
2026-04-30 21:55 16.30276 -61.52435 3594 ft 194 kts 240°
2026-04-30 21:55 16.29541 -61.53611 3596 ft 194 kts 238°
2026-04-30 21:55 16.29191 -61.54974 3583 ft 196 kts 276°
2026-04-30 21:56 16.29694 -61.56258 3594 ft 195 kts 306°
2026-04-30 21:56 16.30524 -61.57385 3594 ft 195 kts 311°
2026-04-30 21:56 16.31398 -61.58475 3593 ft 195 kts 311°
2026-04-30 21:56 16.32272 -61.59566 3592 ft 195 kts 311°
2026-04-30 21:57 16.33211 -61.60749 3602 ft 227 kts 310°
2026-04-30 21:57 16.34220 -61.62042 3597 ft 233 kts 310°
2026-04-30 21:57 16.35250 -61.63373 3594 ft 233 kts 310°
2026-04-30 21:57 16.36265 -61.64689 3593 ft 233 kts 310°
2026-04-30 21:58 16.37271 -61.65994 3592 ft 233 kts 310°
2026-04-30 21:58 16.38287 -61.67312 3592 ft 233 kts 310°
2026-04-30 21:58 16.39306 -61.68633 3589 ft 227 kts 310°
2026-04-30 21:58 16.40089 -61.70002 3569 ft 214 kts 282°
2026-04-30 21:59 16.39916 -61.71493 3579 ft 212 kts 239°
2026-04-30 21:59 16.38971 -61.72652 3594 ft 210 kts 221°
2026-04-30 21:59 16.37896 -61.73688 3593 ft 210 kts 220°
2026-04-30 22:00 16.35777 -61.75776 3592 ft 210 kts 222°
2026-04-30 22:00 16.33401 -61.77342 3579 ft 203 kts 173°
2026-04-30 22:00 16.32152 -61.76773 3593 ft 198 kts 136°
2026-04-30 22:01 16.31187 -61.75769 3595 ft 198 kts 131°
2026-04-30 22:01 16.30398 -61.74596 3588 ft 196 kts 109°
2026-04-30 22:01 16.30081 -61.73222 3593 ft 196 kts 99°
2026-04-30 22:01 16.29881 -61.71811 3592 ft 196 kts 98°
2026-04-30 22:02 16.29674 -61.70405 3592 ft 196 kts 99°
2026-04-30 22:02 16.29449 -61.69004 3505 ft 196 kts 99°
2026-04-30 22:02 16.29214 -61.67633 3386 ft 182 kts 99°
2026-04-30 22:02 16.29004 -61.66447 3287 ft 159 kts 100°
2026-04-30 22:03 16.28807 -61.65352 3037 ft 148 kts 100°
2026-04-30 22:03 16.28613 -61.64285 2356 ft 168 kts 100°
2026-04-30 22:03 16.28360 -61.63062 1856 ft 163 kts 102°
2026-04-30 22:03 16.28168 -61.62024 1845 ft 138 kts 99°
2026-04-30 22:04 16.28004 -61.60970 1257 ft 149 kts 102°
2026-04-30 22:04 16.27797 -61.59965 1117 ft 132 kts 102°
2026-04-30 22:04 16.27469 -61.58255 840 ft 116 kts 101°
2026-04-30 22:05 16.27319 -61.57440 678 ft 115 kts 101°
2026-04-30 22:05 16.27167 -61.56622 514 ft 115 kts 101°
2026-04-30 22:05 16.27015 -61.55803 348 ft 114 kts 101°
2026-04-30 22:05 16.26865 -61.54988 180 ft 114 kts 100°
2026-04-30 22:06 16.26716 -61.54182 46 ft 111 kts 101°
2026-04-30 22:06 16.26345 -61.52142 801 ft 185 kts 101°
2026-04-30 22:06 16.26099 -61.50838 1239 ft 183 kts 101°
2026-04-30 22:07 16.25846 -61.49531 1385 ft 183 kts 101°
2026-04-30 22:07 16.25590 -61.48217 1507 ft 188 kts 101°
2026-04-30 22:07 16.25329 -61.46879 2268 ft 191 kts 101°
2026-04-30 22:07 16.25071 -61.45565 2985 ft 188 kts 101°
2026-04-30 22:08 16.24811 -61.44230 3431 ft 189 kts 101°
2026-04-30 22:08 16.24465 -61.42906 3580 ft 190 kts 118°
2026-04-30 22:08 16.23463 -61.42056 3581 ft 194 kts 163°
2026-04-30 22:08 16.22115 -61.42106 3589 ft 199 kts 199°
2026-04-30 22:09 16.21010 -61.42972 3590 ft 204 kts 234°
2026-04-30 22:09 16.20598 -61.44358 3590 ft 206 kts 273°
2026-04-30 22:09 16.21062 -61.45758 3598 ft 205 kts 303°
2026-04-30 22:09 16.21863 -61.46967 3596 ft 205 kts 307°
2026-04-30 22:10 16.22693 -61.48179 3593 ft 205 kts 306°
2026-04-30 22:10 16.23504 -61.49408 3592 ft 205 kts 305°
2026-04-30 22:10 16.24310 -61.50642 3592 ft 205 kts 305°
2026-04-30 22:10 16.25106 -61.51867 3592 ft 205 kts 302°
2026-04-30 22:11 16.26257 -61.54570 3592 ft 205 kts 291°
2026-04-30 22:11 16.26760 -61.55959 3592 ft 205 kts 291°
2026-04-30 22:11 16.27285 -61.57362 3592 ft 205 kts 292°
2026-04-30 22:12 16.27808 -61.58725 3592 ft 205 kts 292°
2026-04-30 22:12 16.28353 -61.60117 3592 ft 205 kts 292°
2026-04-30 22:12 16.28912 -61.61534 3599 ft 225 kts 293°
2026-04-30 22:12 16.29532 -61.63084 3596 ft 233 kts 293°
2026-04-30 22:13 16.30158 -61.64648 3594 ft 234 kts 293°
2026-04-30 22:13 16.30776 -61.66199 3589 ft 225 kts 292°
2026-04-30 22:13 16.31330 -61.67665 3582 ft 211 kts 285°
2026-04-30 22:13 16.31349 -61.69106 3579 ft 194 kts 256°
2026-04-30 22:14 16.30981 -61.70382 3666 ft 172 kts 249°
2026-04-30 22:14 16.30444 -61.71411 3618 ft 156 kts 220°
2026-04-30 22:14 16.29491 -61.71865 3595 ft 149 kts 181°
2026-04-30 22:14 16.28521 -61.71621 3592 ft 144 kts 145°
2026-04-30 22:15 16.27911 -61.70832 3591 ft 142 kts 109°
2026-04-30 22:15 16.27895 -61.69820 3590 ft 143 kts 73°
2026-04-30 22:15 16.28488 -61.68971 3597 ft 146 kts 45°
2026-04-30 22:15 16.29101 -61.68148 3428 ft 145 kts 71°
2026-04-30 22:16 16.29137 -61.67093 2868 ft 155 kts 98°
2026-04-30 22:16 16.28936 -61.65950 2306 ft 171 kts 102°
2026-04-30 22:17 16.28184 -61.62103 1658 ft 182 kts 101°
2026-04-30 22:17 16.27946 -61.60821 1382 ft 181 kts 101°
2026-04-30 22:17 16.27506 -61.58424 914 ft 175 kts 101°
2026-04-30 22:18 16.27268 -61.57159 662 ft 174 kts 101°
2026-04-30 22:18 16.26868 -61.54980 210 ft 133 kts 102°
2026-04-30 22:19 16.26562 -61.53359 44 ft 93 kts 102°
2026-04-30 22:19 16.26442 -61.52728 44 ft 84 kts 99°
2026-04-30 22:19 16.26045 -61.50697 1037 ft 202 kts 101°
2026-04-30 22:20 16.26119 -61.49227 2536 ft 214 kts 72°
2026-04-30 22:20 16.27748 -61.47030 3447 ft 196 kts 46°
2026-04-30 22:20 16.28960 -61.46349 3572 ft 205 kts 14°
2026-04-30 22:21 16.30372 -61.46446 3760 ft 211 kts 339°
2026-04-30 22:21 16.31547 -61.47389 3742 ft 227 kts 308°
2026-04-30 22:21 16.32179 -61.48982 3499 ft 250 kts 277°
2026-04-30 22:21 16.32256 -61.50855 3259 ft 271 kts 268°
2026-04-30 22:22 16.32194 -61.52898 3009 ft 289 kts 267°
2026-04-30 22:22 16.32102 -61.55038 2761 ft 305 kts 266°
2026-04-30 22:22 16.32008 -61.57298 2510 ft 318 kts 266°
2026-04-30 22:22 16.31899 -61.59642 2261 ft 327 kts 266°
2026-04-30 22:23 16.31786 -61.61968 2036 ft 310 kts 266°
2026-04-30 22:23 16.31686 -61.64069 2000 ft 272 kts 266°
2026-04-30 22:23 16.31601 -61.65904 1988 ft 238 kts 266°
2026-04-30 22:23 16.31366 -61.67497 1970 ft 209 kts 244°
2026-04-30 22:24 16.30504 -61.68549 1963 ft 178 kts 204°
2026-04-30 22:24 16.29420 -61.68723 1957 ft 148 kts 159°
2026-04-30 22:24 16.28748 -61.68146 1992 ft 109 kts 115°
2026-04-30 22:24 16.28526 -61.67482 1854 ft 97 kts 101°
2026-04-30 22:25 16.28355 -61.66663 1917 ft 126 kts 104°
2026-04-30 22:25 16.28121 -61.65729 1990 ft 137 kts 105°
2026-04-30 22:25 16.28065 -61.64776 1972 ft 126 kts 81°
2026-04-30 22:25 16.28279 -61.63932 1706 ft 123 kts 75°
2026-04-30 22:26 16.28901 -61.61887 1672 ft 179 kts 74°
2026-04-30 22:26 16.28942 -61.60646 1886 ft 152 kts 110°
2026-04-30 22:26 16.28315 -61.59896 1743 ft 133 kts 141°
2026-04-30 22:27 16.27753 -61.59191 1389 ft 126 kts 107°
2026-04-30 22:27 16.27587 -61.58264 1145 ft 143 kts 104°
2026-04-30 22:27 16.27119 -61.56370 560 ft 135 kts 99°
2026-04-30 22:28 16.26800 -61.54628 107 ft 108 kts 102°
2026-04-30 22:28 16.26667 -61.53917 44 ft 83 kts 101°
2026-04-30 22:29 16.26526 -61.53191 44 ft 18 kts 102°
2026-04-30 22:29 16.26506 -61.53056 44 ft 18 kts 92°
2026-04-30 22:30 16.26849 -61.52877 44 ft 2 kts 34°
2026-04-30 22:31 16.26938 -61.52877 44 ft 0 kts 11°